Temp
-6 -7 -7 -7 -9 -8 -7 -8 -6 -6 -7 -6 -6 -7 -6 -7 -6 -6 -6 -6 -6 -6 -6 -6 -6 -7 -6 -6 -6 -7 -7 -7 -7 -8 -7 -8 -8 -8 -8 -8 -8 -7 -8 -8
-7 -7 -7 -9 -9 -8 -7 -8 -7 -8 -7 -6 -6 -6 -7 -6 -6 -6 -7 -6 -5 -6 -6 -6 -6 -6 -7 -6 -6 -6 -7 -6 -7 -7 -7 -7 -8 -7 -7 -8 -8 -8 -7 -7
-7 -9 -8 -8 -10 -9 -7 -8 -8 -9 -6 -7 -7 -6 -8 -8 -7 -6 -6 -6 -6 -6 -6 -6 -6 -6 -6 -6 -6 -6 -6 -6 -6 -7 -7 -7 -7 -8 -7 -7 -8 -8 -7 -7
-7 -8 -10 -10 -8 -9 -8 -9 -9 -8 -8 -9 -7 -8 -7 -7 -6 -7 -6 -5 -6 -6 -7 -7 -6 -6 -6 -6 -7 -6 -7 -7 -6 -6 -6 -7 -7 -7 -7 -7 -7 -7 -7 -7
-8 -8 -8 -8 -8 -8 -9 -9 -9 -9 -8 -8 -7 -8 -8 -8 -7 -6 -7 -6 -6 -6 -7 -6 -6 -6 -6 -6 -6 -7 -6 -7 -6 -6 -6 -7 -7 -7 -7 -7 -7 -7 -7 -7
-7 -10 -8 -8 -8 -8 -9 -10 -9 -8 -8 -8 -8 -8 -7 -6 -7 -6 -8 -7 -7 -6 -6 -7 -7 -6 -6 -6 -6 -6 -7 -7 -7 -6 -6 -6 -6 -7 -7 -7 -7 -7 -7 -7
-9 -8 -8 -8 -8 -8 -8 -10 -10 -9 -9 -8 -8 -8 -7 -6 -7 -7 -7 -6 -6 -6 -7 -7 -6 -7 -7 -5 -6 -6 -7 -7 -7 -7 -7 -6 -6 -7 -7 -7 -7 -7 -7 -7
-10 -10 -9 -9 -8 -10 -9 -10 -9 -9 -8 -8 -8 -8 -7 -7 -7 -8 -7 -7 -8 -8 -6 -6 -7 -6 -6 -6 -6 -6 -7 -7 -7 -7 -7 -7 -6 -6 -7 -7 -7 -7 -7 -7
-9 -9 -9 -9 -9 -10 -10 -9 -9 -9 -9 -8 -8 -8 -8 -8 -7 -8 -8 -7 -7 -8 -7 -6 -6 -6 -5 -6 -5 -6 -7 -6 -6 -7 -7 -7 -7 -6 -7 -7 -7 -7 -7 -7
-10 -10 -10 -10 -10 -10 -10 -10 -9 -9 -9 -8 -8 -8 -8 -8 -9 -8 -7 -7 -7 -7 -7 -7 -6 -5 -6 -7 -6 -7 -8 -7 -6 -6 -7 -7 -7 -7 -7 -7 -7 -7 -7 -7
-10 -10 -10 -10 -10 -10 -10 -10 -9 -9 -9 -9 -8 -8 -9 -8 -8 -8 -7 -7 -6 -6 -7 -7 -7 -7 -7 -7 -7 -8 -7 -8 -6 -6 -7 -7 -7 -7 -7 -7 -7 -7 -7 -7
-9 -10 -10 -10 -10 -9 -10 -10 -10 -9 -9 -9 -9 -9 -9 -8 -8 -8 -7 -7 -7 -7 -7 -7 -7 -7 -6 -7 -7 -7 -7 -6 -6 -6 -7 -7 -7 -7 -7 -7 -7 -7 -7 -7
-10 -9 -10 -10 -9 -10 -10 -10 -10 -9 -9 -9 -8 -8 -8 -8 -8 -8 -8 -7 -7 -7 -7 -7 -7 -7 -7 -6 -7 -7 -7 -7 -7 -7 -7 -7 -7 -7 -7 -7 -8 -8 -7 -6
-10 -10 -10 -10 -9 -10 -10 -10 -10 -9 -9 -8 -9 -8 -8 -8 -8 -8 -8 -8 -7 -7 -7 -7 -7 -7 -7 -7 -6 -7 -7 -8 -8 -7 -7 -7 -7 -7 -8 -7 -7 -8 -7 -7
-10 -10 -10 -10 -10 -10 -9 -10 -10 -10 -9 -9 -10 -10 -9 -9 -8 -7 -8 -7 -7 -7 -7 -7 -7 -7 -7 -7 -7 -7 -7 -8 -8 -8 -7 -7 -7 -6 -8 -7 -7 -7 -8 -8
-10 -10 -10 -10 -10 -10 -10 -9 -9 -10 -9 -9 -10 -9 -9 -9 -8 -7 -7 -8 -7 -7 -7 -7 -7 -8 -8 -7 -8 -8 -7 -8 -8 -8 -7 -7 -7 -7 -7 -7 -7 -7 -8 -7
-11 -11 -11 -9 -10 -10 -9 -9 -10 -9 -9 -9 -9 -10 -10 -10 -9 -7 -7 -7 -7 -7 -7 -7 -7 -8 -8 -7 -7 -7 -7 -7 -8 -8 -8 -7 -6 -4 -7 -8 -7 -7 -8 -8
-10 -11 -11 -11 -11 -10 -10 -10 -10 -10 -10 -10 -10 -10 -9 -9 -9 -8 -7 -7 -8 -7 -7 -7 -7 -8 -8 -8 -7 -7 -7 -7 -8 -8 -8 -8 -7 -6 -8 -7 -7 -8 -8 -8
-10 -10 -11 -11 -10 -10 -9 -10 -10 -10 -9 -9 -9 -10 -10 -9 -9 -8 -8 -7 -7 -7 -7 -7 -7 -8 -8 -8 -8 -8 -8 -8 -7 -8 -8 -8 -7 -6 -5 -8 -8 -8 -8 -7
-12 -11 -12 -12 -11 -10 -11 -11 -10 -9 -8 -10 -9 -10 -10 -9 -8 -9 -7 -8 -7 -7 -7 -7 -7 -7 -8 -8 -8 -8 -8 -8 -7 -7 -8 -8 -8 -8 -7 -7 -8 -8 -7 -7
-12 -11 -12 -12 -11 -10 -10 -11 -9 -10 -10 -10 -11 -10 -10 -9 -8 -8 -8 -7 -8 -7 -8 -7 -7 -7 -8 -8 -8 -8 -8 -8 -8 -8 -8 -8 -8 -8 -8 -8 -7 -7 -8 -7
-12 -12 -12 -12 -12 -12 -11 -11 -10 -9 -10 -11 -11 -11 -9 -8 -8 -9 -8 -8 -8 -8 -8 -8 -8 -8 -8 -8 -8 -9 -8 -8 -8 -9 -9 -8 -8 -8 -7 -7 -7 -8 -8 -8
-12 -12 -11 -12 -11 -11 -11 -11 -11 -10 -10 -11 -10 -10 -10 -9 -9 -9 -8 -8 -8 -8 -8 -8 -8 -8 -8 -8 -8 -8 -8 -9 -9 -9 -9 -9 -9 -8 -8 -8 -8 -8 -8 -8
-14 -11 -12 -12 -11 -11 -12 -10 -11 -11 -11 -11 -11 -10 -10 -9 -9 -9 -9 -8 -8 -8 -8 -8 -8 -8 -8 -8 -8 -8 -8 -9 -9 -10 -10 -10 -10 -9 -9 -9 -9 -9 -9 -9
-12 -12 -11 -11 -12 -12 -11 -11 -11 -11 -11 -10 -11 -10 -10 -9 -9 -9 -9 -8 -8 -8 -8 -8 -8 -8 -8 -8 -8 -8 -9 -9 -10 -10 -10 -10 -10 -10 -10 -10 -9 -10 -11 -11
-14 -12 -12 -12 -11 -11 -11 -11 -11 -10 -11 -11 -11 -11 -10 -10 -10 -9 -9 -9 -9 -9 -9 -9 -8 -9 -9 -9 -9 -9 -9 -10 -10 -10 -10 -10 -11 -11 -10 -10 -10 -10 -10 -10
Height
5866 5867 5869 5871 5877 5870 5876 5874 5867 5856 5866 5874 5876 5875 5873 5874 5878 5879 5880 5881 5882 5883 5885 5886 5887 5889 5889 5890 5891 5891 5892 5893 5895 5896 5901 5903 5907 5910 5911 5915 5916 5918 5918 5914
5864 5865 5867 5871 5875 5867 5873 5874 5873 5866 5872 5871 5871 5876 5874 5873 5877 5878 5882 5881 5883 5881 5886 5885 5887 5889 5889 5889 5892 5892 5892 5893 5894 5896 5899 5903 5906 5909 5911 5913 5916 5919 5921 5922
5861 5864 5865 5867 5872 5872 5871 5872 5871 5873 5873 5870 5867 5870 5871 5869 5874 5878 5878 5880 5880 5884 5881 5882 5882 5886 5888 5889 5891 5893 5893 5893 5894 5896 5898 5901 5904 5907 5910 5913 5915 5919 5922 5924
5859 5861 5863 5864 5865 5868 5873 5877 5870 5870 5873 5872 5871 5873 5869 5862 5868 5873 5876 5875 5878 5881 5885 5883 5884 5888 5884 5885 5883 5887 5891 5894 5894 5895 5897 5900 5903 5906 5908 5912 5915 5918 5921 5923
5858 5858 5859 5859 5862 5864 5868 5868 5869 5869 5871 5872 5870 5872 5871 5866 5872 5870 5872 5873 5875 5879 5884 5883 5883 5881 5879 5881 5865 5879 5889 5891 5895 5895 5896 5899 5902 5905 5907 5910 5912 5915 5918 5921
5854 5856 5855 5856 5858 5860 5864 5867 5867 5869 5870 5870 5871 5869 5869 5868 5865 5861 5867 5876 5879 5877 5878 5880 5881 5880 5881 5867 5868 5888 5887 5888 5893 5896 5896 5898 5900 5903 5905 5908 5911 5913 5915 5918
5852 5852 5852 5853 5854 5856 5859 5863 5868 5871 5872 5875 5866 5866 5860 5863 5862 5854 5856 5858 5868 5876 5877 5876 5879 5879 5882 5882 5887 5889 5882 5885 5891 5894 5895 5897 5898 5901 5903 5905 5908 5911 5913 5916
5854 5854 5852 5852 5852 5856 5856 5861 5866 5871 5865 5864 5866 5871 5858 5863 5865 5855 5861 5867 5870 5875 5875 5879 5879 5879 5879 5880 5880 5880 5879 5885 5889 5891 5893 5895 5896 5899 5901 5902 5905 5910 5911 5913
5853 5858 5853 5849 5850 5852 5857 5856 5862 5866 5862 5864 5861 5865 5869 5862 5865 5863 5861 5866 5870 5870 5868 5875 5875 5877 5875 5874 5876 5881 5883 5886 5887 5888 5889 5891 5893 5895 5899 5901 5903 5905 5907 5909
5849 5856 5852 5850 5848 5850 5854 5859 5859 5862 5865 5860 5859 5860 5861 5860 5861 5858 5859 5861 5863 5866 5867 5867 5866 5869 5871 5873 5875 5872 5880 5877 5883 5885 5886 5888 5890 5893 5896 5899 5901 5902 5902 5904
5845 5850 5850 5851 5847 5849 5852 5852 5857 5861 5863 5860 5862 5852 5855 5860 5859 5859 5860 5860 5861 5862 5863 5864 5864 5864 5865 5868 5871 5866 5865 5874 5880 5881 5883 5885 5887 5889 5892 5896 5898 5898 5898 5904
5842 5844 5849 5848 5847 5847 5849 5852 5855 5857 5860 5860 5861 5857 5855 5856 5855 5857 5856 5859 5858 5858 5860 5860 5861 5861 5862 5864 5865 5867 5868 5873 5874 5876 5878 5880 5882 5884 5888 5890 5893 5893 5896 5900
5841 5841 5841 5844 5845 5845 5845 5849 5852 5856 5859 5857 5859 5854 5852 5854 5854 5854 5854 5855 5856 5856 5857 5857 5858 5859 5858 5858 5859 5861 5862 5867 5869 5870 5871 5873 5876 5880 5883 5886 5887 5888 5891 5894
5833 5836 5838 5841 5839 5840 5841 5845 5848 5851 5854 5854 5851 5853 5844 5848 5852 5851 5851 5851 5852 5852 5853 5853 5853 5853 5854 5853 5852 5854 5857 5858 5862 5861 5864 5868 5870 5873 5876 5880 5884 5885 5886 5890
5827 5828 5832 5835 5836 5832 5830 5837 5841 5844 5849 5852 5848 5848 5844 5845 5844 5845 5846 5846 5848 5848 5848 5848 5847 5848 5848 5847 5847 5847 5851 5852 5853 5855 5856 5854 5860 5864 5870 5871 5877 5880 5881 5882
5819 5820 5824 5825 5829 5826 5828 5825 5830 5842 5844 5845 5847 5839 5836 5838 5837 5838 5841 5844 5843 5843 5843 5843 5843 5843 5843 5843 5842 5842 5844 5846 5846 5848 5849 5853 5856 5852 5858 5863 5866 5871 5873 5876
5809 5811 5816 5818 5823 5824 5822 5821 5832 5835 5837 5839 5841 5844 5832 5832 5833 5836 5837 5839 5838 5838 5840 5839 5838 5838 5838 5838 5837 5837 5838 5839 5839 5840 5842 5846 5844 5824 5852 5859 5860 5863 5865 5869
5798 5803 5806 5811 5816 5814 5817 5818 5815 5833 5833 5835 5837 5830 5835 5833 5833 5834 5834 5833 5833 5832 5834 5835 5834 5834 5833 5833 5832 5831 5832 5832 5833 5834 5832 5837 5838 5835 5842 5847 5848 5854 5857 5862
5791 5796 5799 5802 5805 5810 5815 5819 5818 5819 5823 5827 5830 5828 5826 5827 5829 5828 5829 5827 5828 5828 5828 5830 5829 5829 5830 5829 5828 5827 5827 5827 5828 5830 5829 5829 5828 5819 5831 5831 5841 5844 5849 5855
5782 5786 5790 5796 5796 5796 5807 5808 5797 5808 5812 5815 5822 5823 5818 5818 5823 5823 5824 5824 5821 5824 5824 5826 5825 5824 5824 5825 5824 5824 5823 5822 5822 5823 5824 5824 5823 5820 5825 5826 5829 5836 5843 5846
5768 5773 5776 5785 5787 5789 5799 5800 5798 5805 5813 5807 5810 5814 5810 5815 5816 5819 5818 5819 5819 5817 5820 5820 5820 5819 5819 5819 5818 5819 5819 5819 5817 5817 5818 5820 5820 5822 5820 5819 5819 5826 5832 5838
5757 5761 5767 5775 5779 5783 5790 5794 5791 5800 5794 5801 5804 5804 5805 5808 5813 5812 5812 5815 5814 5813 5813 5815 5815 5815 5815 5815 5814 5814 5813 5814 5814 5813 5815 5817 5816 5813 5814 5816 5817 5820 5824 5828
5746 5747 5752 5767 5773 5784 5782 5789 5786 5795 5792 5792 5796 5800 5799 5804 5805 5806 5806 5809 5809 5808 5809 5810 5810 5810 5810 5810 5810 5810 5809 5808 5807 5808 5809 5809 5807 5809 5810 5811 5812 5813 5816 5818
5727 5730 5730 5750 5762 5769 5773 5776 5775 5781 5784 5784 5789 5792 5794 5798 5800 5800 5800 5801 5802 5802 5802 5804 5805 5805 5805 5804 5804 5805 5804 5803 5802 5801 5802 5804 5805 5805 5806 5807 5808 5806 5807 5809
5701 5718 5729 5740 5751 5753 5764 5770 5771 5776 5780 5781 5783 5786 5787 5790 5793 5793 5794 5795 5796 5796 5797 5797 5799 5799 5800 5799 5798 5797 5797 5797 5797 5797 5797 5798 5799 5802 5802 5803 5803 5804 5806 5807
5707 5710 5717 5726 5730 5740 5750 5761 5763 5764 5767 5773 5776 5779 5781 5782 5785 5787 5788 5787 5789 5789 5790 5791 5792 5792 5793 5792 5791 5790 5790 5790 5790 5791 5791 5792 5792 5793 5795 5797 5798 5799 5802 5803
Wind_Speed
13 15 14 9 4 29 28 22 10 7 12 9 5 4 5 11 8 7 14 8 7 10 8 6 6 5 4 6 6 5 6 10 13 15 14 14 13 10 11 13 15 15 16 14
14 14 14 15 13 22 16 12 10 17 14 15 8 4 4 4 1 2 12 8 9 9 10 8 4 5 5 3 5 4 5 7 11 15 16 15 14 13 11 10 12 13 17 17
14 9 12 18 16 18 7 12 3 15 17 19 15 10 10 6 2 8 3 3 9 6 5 11 5 8 7 4 6 6 6 7 11 14 15 15 16 15 14 13 14 15 16 16
13 15 14 19 24 21 18 11 24 27 15 17 19 19 30 15 10 3 1 4 7 8 8 11 20 6 5 9 12 6 7 8 10 13 15 16 18 17 16 15 15 15 17 15
10 15 20 20 17 21 16 22 22 18 18 19 22 18 22 26 4 9 10 7 8 8 7 6 2 8 8 13 13 3 9 8 10 13 16 17 17 18 18 17 17 15 16 15
12 12 17 19 16 17 20 14 16 20 14 16 15 28 27 15 5 19 17 10 6 14 10 7 6 7 12 21 12 16 11 7 12 12 16 16 17 20 19 18 17 17 17 16
8 12 12 13 16 16 18 20 14 11 10 9 24 17 23 22 35 29 3 13 13 11 15 15 9 12 8 11 13 13 9 9 14 13 15 17 17 17 20 20 21 20 19 18
10 15 16 14 12 13 16 18 14 16 17 27 23 18 22 20 21 30 28 27 25 22 21 16 16 18 15 13 14 15 11 15 16 15 15 17 18 18 21 21 21 18 20 20
5 15 22 25 11 17 12 18 17 17 28 29 20 16 26 13 25 23 24 26 23 23 24 21 21 21 23 20 12 18 17 18 17 15 16 18 19 19 20 21 20 20 21 21
15 6 16 12 10 16 17 15 18 15 14 18 25 9 10 17 22 26 27 19 19 18 18 20 21 19 18 18 17 24 19 17 20 18 16 18 19 19 20 22 21 23 25 23
19 12 17 13 14 15 18 18 20 16 20 15 13 3 8 27 28 23 24 16 14 16 15 16 17 17 15 17 21 22 17 19 23 21 19 18 20 20 21 20 24 25 27 25
14 18 14 10 13 12 17 15 13 17 11 15 13 25 14 15 24 27 29 17 14 13 11 14 15 17 17 16 21 24 24 23 22 27 24 22 21 21 20 20 20 26 27 25
16 18 20 16 15 17 15 19 17 14 13 18 16 21 24 26 27 28 28 22 17 16 17 18 17 17 19 19 20 23 26 26 23 21 21 27 26 24 23 21 22 23 27 26
28 22 22 16 22 29 23 17 21 20 17 16 16 24 27 18 25 29 28 29 24 24 20 19 21 24 25 26 26 24 24 28 27 22 28 24 30 29 28 25 23 21 21 23
36 29 23 21 25 28 20 20 18 21 22 19 23 26 35 28 21 21 20 19 19 21 20 19 20 20 21 22 25 28 26 31 33 34 32 31 26 29 32 30 26 24 22 24
34 34 28 36 25 25 24 15 24 18 23 28 20 25 21 19 21 13 13 17 22 22 19 19 20 19 18 18 22 22 24 26 32 32 34 31 34 48 41 35 32 29 27 26
27 35 33 31 32 23 31 19 11 14 21 15 19 19 28 29 37 35 24 19 22 22 18 19 19 19 20 21 21 22 24 26 28 32 34 30 26 25 33 38 31 29 27 26
35 36 37 34 28 34 32 19 23 25 23 21 22 33 32 34 35 23 21 22 23 24 20 18 20 19 19 18 21 22 23 23 25 27 31 34 35 37 35 34 32 33 30 31
46 31 27 34 41 36 28 29 18 28 31 34 29 23 35 38 29 23 20 25 22 20 19 17 20 20 17 17 19 21 21 25 25 28 30 32 37 34 40 45 39 32 32 33
48 43 43 38 39 34 34 20 35 32 37 34 32 34 32 32 18 22 21 21 24 19 19 18 19 20 20 21 20 18 18 21 22 28 33 34 39 38 40 28 28 35 34 34
45 50 46 42 43 46 35 41 41 32 25 18 21 23 39 29 23 20 21 19 20 23 19 19 17 19 18 19 21 20 15 16 17 22 20 30 36 30 40 35 31 37 35 40
40 42 46 46 44 45 31 37 29 36 21 23 25 29 33 26 20 22 22 18 20 22 22 21 19 20 19 18 20 20 21 18 15 17 17 19 23 26 23 28 33 38 41 40
40 52 50 44 44 36 39 31 40 31 25 37 38 29 31 25 23 23 23 19 21 23 24 24 24 22 21 21 21 22 25 25 25 23 21 18 19 15 17 18 23 43 51 47
52 43 35 46 41 37 39 45 39 26 28 34 32 31 31 26 24 25 23 23 23 25 27 28 26 24 24 24 25 23 25 26 25 26 24 21 19 18 16 14 21 12 17 29
36 54 48 46 44 47 44 46 42 43 48 28 31 27 28 28 24 26 25 25 25 25 26 27 26 25 25 26 27 28 28 27 27 26 25 26 25 21 18 17 15 17 16 15
46 49 50 59 60 55 48 46 40 30 29 32 28 27 27 27 24 25 25 24 23 25 26 26 27 27 27 28 29 30 29 29 28 28 27 26 26 24 21 19 19 19 19 18
Wind_Direction
253 244 238 219 23 267 269 282 199 118 330 299 301 308 327 330 18 262 230 226 215 220 244 226 233 209 230 241 231 232 229 228 218 212 201 201 196 193 184 171 184 165 162 188
247 244 235 165 243 274 282 267 299 308 294 293 301 299 300 275 170 317 227 243 244 230 227 223 220 234 255 241 248 278 252 249 225 218 212 207 201 198 201 191 191 179 173 178
246 240 250 204 227 231 284 278 242 276 271 277 282 314 252 178 200 176 164 274 219 223 250 250 227 227 254 257 250 259 265 259 236 224 218 213 207 202 203 203 198 197 190 185
242 223 220 240 240 229 206 235 277 264 252 253 263 270 266 189 177 203 235 137 225 250 253 274 241 270 221 252 220 218 245 261 229 220 214 217 210 208 211 206 207 203 202 200
240 238 239 254 247 236 192 242 230 242 259 243 256 289 296 305 278 253 238 226 226 255 250 299 324 318 250 248 281 265 221 226 226 228 214 212 212 214 214 211 214 213 203 205
251 240 256 247 243 236 206 242 261 267 293 261 279 294 294 291 268 219 203 203 275 278 270 257 293 289 264 251 169 229 223 221 231 240 219 216 216 212 211 215 218 217 213 208
266 260 260 257 241 232 223 221 244 261 272 305 257 259 285 295 295 304 200 163 304 293 280 293 278 277 282 258 261 246 235 236 241 241 234 223 224 215 211 211 216 216 218 215
285 299 314 301 254 219 241 214 208 231 222 241 223 256 300 287 293 302 289 292 281 280 271 263 267 275 270 274 271 295 263 252 241 234 238 232 230 222 216 216 221 217 221 220
183 272 272 281 258 173 245 224 193 239 283 240 236 223 255 275 307 307 291 270 265 268 279 264 263 262 277 285 279 246 248 251 248 239 233 234 233 231 229 224 224 225 224 219
148 257 275 264 259 204 201 257 214 228 256 303 291 256 213 269 293 296 303 295 275 267 263 269 273 263 262 256 242 238 228 231 249 244 235 237 235 235 234 237 229 231 234 222
182 205 229 228 262 218 221 208 209 224 241 267 289 288 262 275 275 281 299 289 273 267 261 260 265 270 266 255 238 254 239 240 241 244 241 237 236 232 232 235 241 235 237 234
225 183 247 281 256 280 206 227 232 224 258 250 245 292 261 256 283 297 289 283 279 273 267 261 258 262 264 255 246 234 238 234 245 228 238 236 241 236 231 228 236 238 236 234
243 217 220 241 228 241 210 226 226 232 233 252 237 258 263 268 275 281 287 279 271 274 285 278 269 264 273 273 264 244 239 234 232 235 238 241 237 240 238 232 226 233 237 238
218 218 228 223 258 210 208 222 219 222 229 249 255 224 245 246 267 272 277 276 272 272 275 277 270 269 269 270 271 263 242 240 232 232 244 254 240 236 235 233 234 235 240 241
245 229 215 228 245 263 245 225 217 223 214 227 243 248 262 262 268 262 263 266 272 273 274 281 279 276 275 273 269 264 251 241 239 234 240 249 243 235 239 224 225 229 233 240
236 236 224 217 233 250 248 213 197 219 219 231 239 279 282 269 271 273 269 274 275 273 275 281 283 276 274 273 275 275 260 256 250 243 242 245 251 228 228 224 219 220 222 228
232 229 232 221 222 262 244 201 230 237 260 247 226 242 261 274 271 271 280 278 279 277 272 279 280 275 275 278 279 270 270 263 264 251 251 242 245 236 247 218 218 226 224 231
239 228 219 229 220 237 251 224 187 240 232 237 233 253 240 251 261 265 275 282 281 277 271 277 277 273 280 280 281 283 270 261 246 250 254 244 236 248 232 229 228 226 228 228
234 223 216 225 220 230 240 218 247 228 237 242 244 246 261 252 256 266 274 279 274 269 271 273 277 267 271 277 288 288 279 267 256 255 249 252 239 226 218 237 227 228 232 234
232 232 230 226 238 229 223 223 243 231 239 242 249 251 243 260 259 260 266 281 279 269 266 268 275 275 272 273 281 288 289 280 266 258 262 262 265 260 232 242 250 232 235 236
234 231 224 227 229 228 225 225 238 242 223 212 246 247 243 256 249 262 274 276 272 276 268 269 268 270 275 275 277 282 288 285 283 268 277 253 273 259 271 272 245 233 239 239
225 223 225 224 228 234 242 236 252 235 214 217 244 249 263 255 248 255 263 274 270 271 268 266 265 266 271 275 279 278 280 284 284 287 279 267 275 280 280 268 261 241 248 247
228 221 223 225 235 232 240 235 241 224 240 254 258 262 260 251 250 254 259 263 264 266 263 263 265 265 270 275 279 281 280 279 282 287 292 292 293 296 289 277 264 246 245 245
214 232 215 208 210 218 223 227 242 251 254 255 255 252 252 245 246 253 259 265 267 264 264 263 261 264 270 275 278 282 282 282 281 282 285 290 292 292 285 299 267 270 250 247
230 215 215 217 200 211 213 226 234 236 242 250 247 251 253 249 248 258 260 263 266 265 266 265 265 264 268 273 278 281 282 278 277 279 278 278 279 281 279 273 282 283 300 304
221 212 216 217 214 210 220 215 224 190 215 227 254 248 251 253 256 259 261 262 263 264 264 266 268 270 272 275 277 279 278 276 274 275 275 277 276 278 273 271 267 264 269 276